User: anonymous   Login
Location: Cz?stochówka
(50.8142°N, 19.0915°E)
Time: 11:47:09
(UTC+00:00)
Language:

Helios 1A Rocket - Orbit

View from above orbital plane
View from above orbital plane
View from above satellite
View from above satellite

Ground track
Ground track

The orbit is defined by the following mean orbital elements,

1 23608U          26064.91772125 +.00000000 +00000-0 +82965-3 0 00007
2 23608  98.2875 268.6115 0007454  49.0205 311.1686 15.46845137    09
Epoch (UTC): 05 March 2026 22:01:31
Eccentricity: 0.0007454
inclination: 98.2875°
perigee height: 421 km
apogee height: 431 km
right ascension of ascending node: 268.6115°
argument of perigee: 49.0205°
revolutions per day: 15.46845137
mean anomaly at epoch: 311.1686°

The dashed part of the orbit path shows where the satellite is in the earth's shadow,  

DLR